Regional Weather Roundup
Issued by NWS

Home | Current Version | Previous Version | Graphics & Text | Print | Product List | Glossary On
Versions: 1 2 3 4 5 6 7 8 9 10 11 12 13 14 15 16 17 18 19 20 21 22 23 24 25 26 27 28 29 30 31 32 33 34 35 36 37 38 39 40 41 42 43 44 45 46 47 48 49 50
000
ASUS43 KDMX 210401
RWRIA

WEATHER ROUNDUP FOR IOWA
NATIONAL WEATHER SERVICE DES MOINES IA
1000 PM CST MON FEB 20 2017

NOTE: "FAIR" INDICATES FEW OR NO CLOUDS BELOW 12,000 FEET WITH NO
SIGNIFICANT WEATHER AND/OR OBSTRUCTIONS TO VISIBILITY.

* - THESE STATIONS ARE NOT NWS STATIONS...THUS NOT UNDER NWS
QUALITY CONTROL.  THEY ALSO DO NOT REPORT WEATHER SUCH
AS PRECIPITATION OR FOG.

IAZ001>003-012>014-020>022-031>034-043>046-210500-
   NORTHWEST IOWA

CITY           SKY/WX    TMP DP  RH WIND       PRES   REMARKS
CARROLL *      CLEAR     43  43 100 W7        29.93R
CHEROKEE *     CLEAR     40  40 100 CALM      29.91S
DENISON *      CLEAR     43  41  93 CALM      29.91R
LE MARS *      CLEAR     37  36  93 SW5       29.92R WCI  34
SHELDON *      CLEAR     41  41 100 SW5       29.88S
SIOUX CITY     CLEAR     41  39  93 SW3       29.92R
SPENCER        CLEAR     40  38  93 W10       29.89R WCI  33
STORM LAKE *   CLEAR     41  39  93 W10       29.91R
$$

IAZ055>058-069>071-079>083-090>094-210500-
   SOUTHWEST IOWA

CITY           SKY/WX    TMP DP  RH WIND       PRES   REMARKS
ATLANTIC *     MOCLDY    48  45  87 NW12      29.94F
CLARINDA *     MOCLDY    54  48  82 N7          N/A
COUNCIL BLFS * CLEAR     48  45  87 N6        29.94R
CRESTON *      CLOUDY    52  48  87 NW13      29.93R
HARLAN  *      CLEAR     41  41 100 W5        29.97S
LAMONI         CLOUDY    56  53  90 W9        29.90S
RED OAK *      CLEAR     50  45  81 NW7       29.94S
SHENANDOAH *   CLEAR     50  45  81 VRB3      29.95S
$$

IAZ047>049-059>061-072>074-084-210500-
   CENTRAL IOWA

CITY           SKY/WX    TMP DP  RH WIND       PRES   REMARKS
AMES           CLOUDY    51  48  89 NW13      29.90R
ANKENY *       CLOUDY    54  46  76 NW9G17    29.91S
BOONE *        CLOUDY    50  48  93 NW10G17   29.90R
CHARITON *     CLOUDY    57  55  94 W8        29.90S
DES MOINES     CLOUDY    55  47  74 N12       29.90R
GRINNELL*      CLOUDY    55  54  96 SW8       29.89R FOG
KNOXVILLE *    CLOUDY    57  55  94 W8        29.87F
MARSHALLTOWN   CLOUDY    53  51  93 NW17      29.88R
NEWTON *       MOCLDY    57  55  94 SW10      29.88R
PELLA *        CLOUDY    57  56  96 W6        29.90R
PERRY *          N/A     51  47  87 NW9       29.91S
$$

IAZ004>006-015-016-023>025-035-036-210500-
   NORTH CENTRAL IOWA

CITY           SKY/WX    TMP DP  RH WIND       PRES   REMARKS
ALGONA *       CLEAR     43  43 100 W6        29.89R
CLARION *      CLOUDY    46  46 100 W10       29.90R
ESTHERVILLE    CLEAR     42  41  96 W13       29.87R
FORT DODGE *   PTCLDY    46  39  76 SW5       29.92R
MASON CITY     PTCLDY    47  44  90 W14       29.87R
FOREST CITY *    N/A     43  43 100 W8        29.87R
IOWA FALLS *     N/A     50  47  89 W13       29.90R
$$

IAZ007>011-017>019-026>030-037>042-050>054-066-210500-
   NORTHEAST IOWA

CITY           SKY/WX    TMP DP  RH WIND       PRES   REMARKS
CEDAR RAPIDS   LGT RAIN  54  54 100 S6        29.87R FOG
CHARLES CITY * CLOUDY    52  52 100 W18       29.86R
DECORAH *      CLOUDY    55  55 100 SW9G20    29.80F FOG
DUBUQUE        LGT RAIN  52  52 100 S7        29.87F VSB 1/2
MONTICELLO *   LGT RAIN  52  52 100 CALM      29.88R VSB 1
OELWEIN *      CLOUDY    54  54 100 SW10G16   29.85R FOG
WATERLOO       CLOUDY    56  54  93 W16G29    29.85R
$$

IAZ064-065-067-068-078-210500-
   EAST CENTRAL IOWA

CITY           SKY/WX    TMP DP  RH WIND       PRES   REMARKS
DAVENPORT      LGT RAIN  58  55  90 S8        29.91R
IOWA CITY      LGT RAIN  56  55  97 CALM      29.90R FOG
MUSCATINE *    CLOUDY    57  55  94 CALM      29.89F
QUAD CITIES    LGT RAIN  60  55  83 S6        29.91R
$$

IAZ062-063-075>077-085>089-095>099-210500-
   SOUTHEAST IOWA

CITY           SKY/WX    TMP DP  RH WIND       PRES   REMARKS
BURLINGTON     CLOUDY    59  59 100 SE3       29.88F
FAIRFIELD *    CLOUDY    57  55  94 S3        29.89R
KEOKUK *       CLOUDY    59  59 100 CALM      29.89R
OTTUMWA        CLOUDY    57  56  96 SW6       29.88R
WASHINGTON *   LGT RAIN  59  57  94 S7        29.90R
$$

ABBREVIATIONS USED IN REMARKS
   TC - TEMPERATURES IN CELSIUS
  WCI - WIND CHILL INDEX
   HX - HEAT INDEX
  VSB - VISIBILITY
$$





USA.gov is the U.S. government's official web portal to all federal, state and local government web resources and services.